TimeCDT,TemperatureF,Dew PointF,Humidity,Sea Level PressureIn,VisibilityMPH,Wind Direction,Wind SpeedMPH,Gust SpeedMPH,PrecipitationIn,Events,Conditions,WindDirDegrees,DateUTC
12:52 AM,36.0,18.0,48,29.86,10.0,WNW,8.1,-,N/A,,Clear,290,2012-11-01 05:52:00
1:52 AM,35.1,16.0,46,29.86,10.0,WNW,6.9,-,N/A,,Clear,300,2012-11-01 06:52:00
2:52 AM,35.1,15.1,44,29.85,10.0,WNW,8.1,-,N/A,,Clear,290,2012-11-01 07:52:00
3:52 AM,33.1,16.0,50,29.86,10.0,WNW,6.9,-,N/A,,Partly Cloudy,290,2012-11-01 08:52:00
4:52 AM,34.0,16.0,48,29.85,10.0,West,5.8,-,N/A,,Mostly Cloudy,280,2012-11-01 09:52:00
5:52 AM,36.0,16.0,44,29.85,10.0,WNW,5.8,-,N/A,,Overcast,290,2012-11-01 10:52:00
6:52 AM,36.0,16.0,44,29.86,10.0,Variable,4.6,-,N/A,,Mostly Cloudy,0,2012-11-01 11:52:00
7:52 AM,35.1,18.0,50,29.88,10.0,West,3.5,-,N/A,,Mostly Cloudy,260,2012-11-01 12:52:00
8:52 AM,41.0,18.0,40,29.88,10.0,WNW,9.2,-,N/A,,Mostly Cloudy,300,2012-11-01 13:52:00
9:52 AM,44.1,18.0,35,29.88,10.0,WNW,9.2,-,N/A,,Clear,300,2012-11-01 14:52:00
10:52 AM,48.0,15.1,27,29.88,10.0,NW,8.1,-,N/A,,Mostly Cloudy,310,2012-11-01 15:52:00
11:52 AM,48.9,23.0,36,29.86,10.0,Variable,6.9,-,N/A,,Overcast,0,2012-11-01 16:52:00
12:52 PM,52.0,25.0,35,29.84,10.0,West,9.2,-,N/A,,Mostly Cloudy,280,2012-11-01 17:52:00
1:52 PM,51.1,28.9,43,29.82,10.0,WNW,9.2,19.6,N/A,,Overcast,300,2012-11-01 18:52:00
2:52 PM,51.1,30.0,44,29.82,10.0,NW,9.2,-,N/A,,Overcast,310,2012-11-01 19:52:00
3:52 PM,50.0,30.0,46,29.83,10.0,WNW,8.1,17.3,N/A,,Overcast,300,2012-11-01 20:52:00
4:52 PM,48.9,28.0,44,29.84,10.0,WNW,3.5,-,N/A,,Clear,290,2012-11-01 21:52:00
5:52 PM,46.9,28.0,48,29.85,10.0,North,6.9,-,N/A,,Overcast,360,2012-11-01 22:52:00
6:52 PM,45.0,30.0,56,29.87,10.0,NNW,6.9,-,N/A,,Overcast,330,2012-11-01 23:52:00
7:52 PM,44.1,30.0,58,29.88,10.0,NW,3.5,-,N/A,,Overcast,320,2012-11-02 00:52:00
8:52 PM,44.1,30.9,60,29.89,10.0,NNW,4.6,-,N/A,,Overcast,330,2012-11-02 01:52:00
9:52 PM,44.1,30.0,58,29.90,10.0,NNW,5.8,-,N/A,,Overcast,330,2012-11-02 02:52:00
10:52 PM,43.0,28.9,58,29.90,10.0,NW,5.8,-,N/A,,Overcast,320,2012-11-02 03:52:00
11:52 PM,41.0,30.0,65,29.92,10.0,NNW,4.6,-,N/A,,Partly Cloudy,330,2012-11-02 04:52:00